Wind_Speed
24 25 26 26 26 25 25 25 26 26 27 27 27 26 26 25 25 25 25 25 24 25 25 25 25 26 25 26 26 26 26 27 27 27 28 28 29 30 30 29 30 30 30
26 26 27 26 27 27 27 27 27 27 27 28 27 27 27 26 26 26 26 26 26 25 25 25 25 26 26 26 27 26 26 27 27 27 28 28 29 30 31 31 31 31 31
27 27 27 27 27 28 28 28 28 28 28 28 28 28 27 27 26 26 26 26 26 25 25 25 25 25 26 26 26 26 26 27 27 27 28 29 29 30 31 31 32 32 33
28 28 28 28 28 28 29 29 29 29 29 28 28 27 27 26 26 26 26 26 25 25 25 26 26 26 26 27 27 27 27 27 27 28 28 28 28 28 30 31 31 32 32
28 28 29 29 28 29 30 30 29 29 28 28 27 27 27 26 26 26 26 26 26 26 25 25 25 25 26 26 27 27 27 27 27 29 29 30 30 29 30 31 32 32 32
28 28 28 28 29 29 30 30 29 28 28 28 28 27 27 27 26 26 26 26 26 26 26 25 25 25 25 26 27 28 28 27 28 28 29 29 30 30 30 31 31 32 33
28 28 27 28 30 31 30 29 28 28 28 28 27 27 27 27 27 27 26 26 26 26 25 25 26 26 25 26 27 28 28 28 28 29 29 30 30 31 32 32 32 32 33
28 27 29 29 29 29 28 28 28 28 29 29 28 28 27 27 27 27 26 25 25 26 26 26 26 26 26 26 26 27 27 28 29 30 30 30 31 31 32 33 34 34 34
28 28 28 28 28 29 28 27 28 28 29 28 27 27 26 26 25 25 25 25 25 25 26 26 26 26 26 26 26 27 27 28 28 30 31 31 32 32 32 33 34 34 34
28 28 28 28 29 29 28 28 28 29 29 28 28 28 27 26 25 25 25 26 25 25 25 26 26 27 26 26 26 27 28 29 28 29 30 31 32 33 33 33 33 34 35
27 27 29 29 29 28 29 29 29 29 28 27 27 27 26 26 26 27 25 25 26 25 25 25 25 25 26 26 26 27 27 28 28 28 29 30 31 32 33 33 33 33 34
26 27 28 28 28 28 27 27 27 27 26 27 26 26 26 26 26 26 26 25 25 25 25 25 25 26 26 26 26 26 27 28 29 29 29 29 30 31 32 33 33 33 34
25 26 27 27 27 26 25 26 26 26 26 25 25 26 25 25 25 25 26 26 26 25 25 25 26 26 26 26 26 26 27 27 28 28 29 29 30 30 31 32 32 33 34
25 25 25 24 24 24 24 24 25 25 24 24 25 25 25 25 25 25 26 26 26 26 26 26 26 26 27 27 26 26 26 27 28 29 29 29 30 31 31 32 32 32 33
25 25 24 24 24 24 23 24 24 24 24 24 24 25 24 24 24 24 25 26 27 26 26 25 25 25 26 26 26 26 26 27 28 29 29 29 30 30 30 31 32 33 33
23 24 23 23 22 22 23 24 24 25 25 25 24 24 23 23 23 24 24 24 25 26 26 25 24 25 25 26 26 26 26 27 28 28 29 29 30 30 30 31 32 33 34
23 23 23 23 22 22 22 23 23 24 24 24 24 24 23 22 23 24 24 24 25 25 25 24 25 25 25 26 27 27 26 26 27 28 28 29 30 31 31 30 31 32 33
23 23 23 23 22 22 23 24 24 25 25 24 24 22 22 22 23 23 23 24 25 25 25 25 25 26 26 27 27 28 28 27 26 27 27 27 28 29 30 31 31 32 32
22 22 23 23 23 23 24 24 24 25 24 23 22 22 21 22 22 22 23 23 24 24 25 26 26 26 26 27 28 27 27 27 26 26 27 26 27 28 28 29 30 31 31
23 23 23 23 23 24 24 24 24 24 23 22 22 22 22 21 21 22 22 22 23 23 24 25 26 26 26 26 26 26 26 26 26 26 25 25 26 26 26 27 28 28 29
22 22 23 23 23 24 24 24 24 23 22 23 23 22 21 21 22 22 22 22 22 22 22 23 24 25 25 25 25 24 25 25 25 24 24 25 25 25 24 25 26 27 28
22 23 23 24 23 23 23 23 23 22 22 23 23 22 21 21 22 22 21 21 20 21 21 22 22 23 23 23 24 24 24 24 23 23 23 24 24 24 25 25 25 26 27
22 23 23 23 22 21 22 22 22 22 22 22 23 22 22 21 20 20 20 20 20 21 21 21 21 21 22 22 22 23 23 22 22 22 23 23 23 24 25 25 25 26 27
22 22 22 21 21 21 21 21 21 21 22 22 22 21 20 19 19 19 19 19 19 20 21 21 20 21 21 21 22 22 22 22 21 21 22 22 23 24 25 25 26 26 26
21 21 21 20 20 20 21 21 21 22 22 21 21 21 20 19 19 19 18 18 18 19 19 19 19 20 21 21 22 22 21 21 21 21 22 23 23 24 24 25 26 27 27
20 21 20 20 20 20 20 21 21 21 21 20 20 19 19 18 17 17 17 17 17 18 18 18 18 19 19 20 21 21 21 21 22 22 23 23 23 24 24 25 26 26 27
Wind_Direction
292 292 293 293 292 290 290 290 290 290 290 288 287 286 284 282 283 282 281 280 278 277 274 271 269 266 266 264 261 259 257 256 256 255 254 254 253 253 251 249 249 249 247
293 293 293 293 293 292 291 291 292 290 290 289 287 286 284 283 282 281 281 280 279 277 274 271 268 266 265 264 263 261 260 257 256 257 256 254 253 252 250 249 249 248 247
293 294 292 292 292 293 293 291 292 292 291 290 288 287 285 284 284 282 281 281 279 276 274 272 270 268 266 266 264 262 260 259 258 258 257 255 253 253 252 251 249 249 248
292 293 292 292 292 292 292 291 292 292 291 290 289 288 287 285 284 282 280 278 277 277 274 271 269 268 266 265 264 262 261 261 260 259 258 256 255 254 253 252 252 251 249
291 292 293 292 293 293 293 292 292 290 289 289 289 289 288 287 285 282 280 278 276 276 274 272 270 268 266 265 263 262 262 262 261 261 259 256 255 255 254 253 253 251 249
292 293 295 294 294 294 294 293 291 290 288 288 288 289 288 286 282 281 279 277 275 274 274 272 271 269 267 266 264 263 262 262 262 261 258 257 255 254 255 255 254 251 249
292 293 296 296 296 296 296 293 291 291 290 290 289 288 287 285 282 280 279 275 274 274 274 273 271 268 268 268 266 263 263 262 262 261 259 257 255 254 254 255 255 254 251
296 294 297 298 299 299 296 293 292 291 291 291 289 287 287 284 283 282 278 275 273 273 274 274 272 270 269 268 266 264 263 262 262 262 261 259 256 255 255 255 255 255 253
300 297 297 298 299 300 298 293 292 292 291 289 289 288 287 286 283 280 278 275 274 273 273 272 272 272 270 268 267 265 264 262 263 263 263 261 259 258 257 255 256 255 254
300 298 297 298 297 296 296 295 292 291 292 289 288 288 287 287 286 282 279 277 275 276 274 274 273 272 270 267 267 267 266 265 264 264 263 261 260 259 257 256 255 254 254
300 298 296 296 297 298 297 295 293 292 292 291 288 287 286 285 284 283 281 279 278 277 276 276 275 273 271 268 268 269 269 267 266 264 264 264 263 260 257 256 255 254 253
301 300 298 298 299 298 297 295 293 294 294 291 290 288 285 284 283 282 281 279 277 277 275 275 275 273 272 270 270 271 270 269 269 267 266 265 263 261 258 256 255 254 253
305 304 302 300 300 299 296 295 294 296 295 293 291 289 287 286 284 281 280 278 278 277 275 274 275 274 272 271 272 273 274 272 271 269 268 266 264 260 258 256 255 254 253
305 307 307 304 302 302 301 298 295 297 297 296 294 291 289 287 286 282 280 278 278 277 276 275 274 274 272 272 273 273 275 276 274 272 271 267 263 261 259 257 255 254 254
306 307 307 307 303 302 303 301 298 299 301 300 297 293 289 288 286 282 280 279 277 276 276 276 275 274 273 273 274 274 275 276 275 272 270 268 266 264 260 258 256 255 255
309 308 308 308 309 307 305 305 304 300 299 300 297 294 291 289 287 283 281 279 278 278 277 276 275 274 273 274 275 276 277 277 275 274 271 268 265 263 262 260 257 257 255
307 308 309 309 309 310 309 307 307 306 303 302 299 296 293 290 285 284 282 280 279 278 278 276 277 277 275 274 274 275 276 277 277 275 273 270 266 263 260 260 259 257 255
306 306 307 306 307 309 311 310 309 307 305 301 300 299 296 292 289 287 285 282 280 278 277 277 281 280 277 275 276 276 276 277 278 276 273 271 269 265 261 260 260 257 255
306 307 308 308 308 310 311 310 309 308 307 303 302 301 297 294 292 290 288 285 283 280 279 278 279 279 278 277 276 276 277 278 278 276 274 271 269 267 265 263 261 258 256
306 307 309 310 310 310 311 310 309 307 306 308 307 304 300 296 294 293 291 289 287 285 282 280 280 280 279 280 278 278 278 279 279 278 275 271 269 267 266 264 261 259 258
308 308 308 308 309 309 310 312 310 307 306 308 308 305 299 297 295 295 293 293 290 288 285 281 279 280 281 280 279 279 281 281 281 280 276 274 271 269 266 266 265 263 261
309 308 309 308 307 308 309 309 309 311 311 311 310 306 299 297 297 296 294 294 292 290 286 284 281 280 281 281 280 281 283 282 280 279 277 275 272 269 268 266 266 265 265
309 309 309 308 308 309 311 312 312 313 313 312 311 307 304 300 299 298 297 295 292 291 289 287 283 281 281 282 283 284 284 282 281 279 278 276 273 272 270 268 267 267 267
312 312 311 309 309 310 311 312 314 315 315 314 312 310 309 306 305 303 300 298 294 293 291 290 286 284 284 284 287 286 286 284 281 280 280 278 275 273 271 270 268 268 266
316 316 316 316 316 315 314 313 313 314 314 313 311 311 311 310 309 306 304 301 298 297 296 295 293 290 289 287 287 288 287 284 281 280 281 280 278 275 274 272 270 269 268
320 321 321 319 320 319 319 318 316 314 315 313 312 312 313 312 312 310 307 305 304 302 301 301 301 298 294 292 292 292 290 285 282 281 282 281 279 277 275 274 273 271 270
Height
5835 5834 5832 5831 5829 5828 5827 5825 5823 5822 5820 5819 5817 5816 5815 5814 5813 5813 5812 5812 5812 5811 5811 5811 5811 5812 5813 5814 5815 5816 5818 5819 5820 5822 5824 5825 5827 5829 5831 5833 5835 5837 5839
5830 5829 5827 5825 5824 5822 5820 5819 5817 5816 5814 5812 5811 5809 5808 5807 5807 5806 5805 5805 5805 5804 5804 5804 5804 5805 5806 5807 5809 5810 5811 5813 5814 5816 5817 5819 5820 5822 5824 5826 5829 5831 5833
5824 5823 5821 5819 5818 5816 5814 5812 5811 5809 5807 5805 5804 5802 5801 5800 5800 5799 5798 5797 5797 5798 5798 5798 5798 5798 5799 5801 5802 5803 5805 5806 5808 5809 5810 5812 5814 5816 5818 5819 5822 5824 5826
5819 5817 5815 5813 5811 5810 5808 5806 5804 5802 5800 5798 5797 5796 5794 5793 5792 5792 5791 5790 5790 5790 5791 5791 5792 5792 5793 5794 5795 5797 5798 5799 5801 5802 5803 5805 5807 5809 5811 5813 5815 5816 5818
5813 5811 5809 5807 5805 5804 5801 5799 5797 5795 5793 5791 5790 5789 5788 5787 5785 5785 5784 5784 5783 5783 5784 5784 5785 5785 5786 5787 5788 5789 5791 5792 5793 5795 5796 5797 5799 5801 5803 5805 5807 5809 5811
5807 5805 5803 5801 5799 5797 5794 5792 5790 5788 5786 5785 5783 5782 5781 5779 5779 5777 5777 5777 5777 5777 5777 5778 5778 5778 5779 5780 5781 5783 5784 5785 5786 5787 5788 5790 5791 5793 5795 5797 5799 5801 5803
5801 5798 5796 5795 5792 5790 5787 5785 5783 5781 5779 5777 5776 5775 5774 5772 5772 5771 5770 5770 5770 5770 5770 5771 5771 5772 5772 5773 5774 5775 5776 5778 5779 5780 5781 5782 5783 5785 5787 5789 5791 5793 5795
5794 5792 5790 5788 5786 5783 5780 5777 5775 5774 5772 5770 5769 5768 5767 5766 5765 5763 5763 5763 5763 5763 5764 5764 5764 5764 5765 5766 5767 5767 5768 5770 5771 5772 5773 5774 5775 5777 5779 5781 5783 5785 5787
5789 5786 5783 5781 5779 5776 5773 5771 5769 5767 5765 5763 5761 5760 5759 5758 5758 5757 5756 5756 5756 5757 5757 5757 5757 5757 5758 5758 5759 5760 5761 5762 5762 5763 5764 5765 5767 5768 5770 5772 5774 5776 5778
5783 5780 5777 5774 5772 5769 5767 5764 5762 5760 5758 5756 5755 5753 5752 5751 5750 5751 5750 5750 5750 5750 5750 5750 5750 5750 5750 5751 5751 5752 5753 5753 5754 5754 5755 5756 5758 5759 5760 5762 5764 5766 5768
5776 5773 5771 5768 5766 5762 5760 5758 5755 5753 5751 5749 5748 5746 5745 5744 5743 5743 5744 5743 5743 5743 5743 5743 5742 5742 5742 5743 5744 5744 5744 5745 5745 5746 5746 5747 5748 5749 5751 5753 5754 5756 5758
5770 5767 5764 5761 5759 5756 5754 5751 5749 5747 5745 5743 5741 5740 5739 5738 5737 5736 5736 5736 5736 5736 5735 5735 5735 5735 5735 5735 5736 5736 5736 5736 5737 5737 5737 5738 5739 5740 5741 5743 5745 5747 5749
5764 5761 5758 5755 5752 5749 5747 5745 5743 5741 5738 5736 5735 5733 5732 5731 5730 5729 5729 5729 5729 5729 5728 5728 5728 5728 5728 5728 5728 5728 5728 5728 5728 5728 5729 5729 5730 5731 5732 5733 5735 5737 5739
5757 5755 5752 5749 5746 5744 5741 5739 5737 5735 5732 5730 5728 5726 5725 5724 5723 5722 5722 5721 5721 5721 5721 5721 5720 5720 5720 5720 5720 5720 5720 5720 5720 5720 5720 5720 5721 5721 5722 5724 5726 5727 5730
5752 5749 5746 5744 5741 5738 5736 5733 5731 5729 5726 5724 5721 5720 5718 5717 5716 5715 5714 5714 5714 5713 5714 5713 5713 5713 5712 5712 5713 5712 5712 5712 5711 5711 5711 5711 5711 5712 5713 5715 5716 5718 5720
5746 5744 5741 5738 5736 5733 5730 5728 5725 5723 5720 5718 5715 5714 5712 5711 5709 5708 5707 5707 5706 5705 5705 5706 5705 5705 5704 5704 5704 5704 5704 5703 5702 5702 5701 5702 5702 5703 5704 5705 5706 5708 5710
5741 5738 5736 5733 5731 5728 5725 5722 5720 5717 5714 5712 5709 5707 5705 5704 5702 5701 5700 5699 5699 5698 5697 5698 5697 5697 5697 5697 5696 5696 5695 5694 5693 5693 5692 5692 5693 5693 5694 5695 5697 5698 5700
5736 5733 5731 5728 5726 5723 5720 5717 5714 5711 5709 5706 5704 5701 5699 5697 5696 5694 5693 5692 5691 5690 5690 5690 5690 5689 5689 5689 5688 5687 5687 5686 5685 5684 5683 5683 5683 5684 5685 5686 5687 5688 5690
5730 5728 5726 5723 5720 5718 5715 5712 5709 5706 5703 5700 5698 5695 5693 5691 5689 5687 5686 5685 5684 5683 5682 5682 5682 5681 5680 5680 5680 5679 5678 5677 5676 5675 5675 5674 5674 5675 5675 5676 5677 5679 5680
5725 5723 5720 5718 5715 5713 5710 5706 5703 5700 5697 5694 5692 5689 5686 5684 5682 5681 5679 5678 5676 5676 5675 5674 5674 5673 5672 5671 5671 5671 5670 5669 5668 5667 5666 5666 5666 5666 5666 5667 5668 5669 5671
5720 5718 5715 5713 5710 5707 5704 5701 5698 5695 5691 5689 5686 5683 5680 5678 5676 5674 5672 5671 5669 5668 5667 5666 5665 5665 5664 5663 5663 5662 5662 5661 5660 5659 5658 5658 5658 5658 5658 5659 5660 5660 5662
5715 5712 5710 5707 5704 5701 5699 5695 5692 5689 5686 5683 5680 5677 5674 5671 5670 5667 5665 5664 5662 5661 5660 5659 5658 5657 5657 5655 5655 5654 5653 5653 5652 5652 5650 5650 5650 5650 5650 5651 5651 5652 5653
5710 5707 5704 5701 5699 5696 5693 5690 5686 5682 5679 5676 5673 5670 5667 5665 5663 5661 5659 5657 5656 5654 5653 5651 5651 5650 5649 5648 5647 5646 5645 5644 5644 5644 5643 5643 5642 5642 5642 5642 5643 5644 5644
5704 5701 5699 5696 5693 5690 5687 5684 5680 5677 5674 5671 5667 5664 5662 5659 5656 5654 5653 5651 5649 5648 5646 5645 5644 5643 5641 5640 5640 5639 5638 5637 5636 5636 5635 5635 5635 5634 5634 5634 5634 5635 5635
5699 5696 5693 5691 5688 5685 5682 5678 5675 5672 5668 5665 5662 5659 5656 5654 5651 5648 5647 5645 5643 5642 5640 5638 5637 5636 5635 5634 5633 5632 5631 5630 5629 5629 5628 5627 5627 5627 5627 5626 5626 5626 5626
5694 5691 5688 5686 5683 5680 5677 5673 5670 5666 5663 5660 5657 5654 5651 5649 5646 5644 5641 5639 5638 5636 5634 5632 5631 5630 5628 5627 5626 5625 5623 5623 5622 5622 5621 5620 5619 5618 5619 5618 5618 5617 5617